Location: Bavegemberg
(50.9500°N, 3.8833°E)
Time: 05:42:55
(UTC+00:00)

FENGYUN 1C DEB - Pass Details

Date: 06 October 2024
Orbit: 756 x 948 km, 98.7° (Epoch: 04 November)

Event Time Altitude Azimuth Distance (km) Brightness Sun altitude
Exits shadow 23:15:37 15° 355° (N) 2,147 ? -44.5°
Drops below altitude 10° 23:16:34 10° 352° (N) 2,509 ? -44.5°
Sets 23:19:04 0° 348° (NNW) 3,482 ? -44.6°
